STARLINK-1273, 45367

Orbit data source: Space-Track

STARLINK-1273, 45367 is a payload satellite owned by SpaceX/Seattle (US) in LEO that was launched on Wed, 18 Mar 2020 UTC via an FALCON 9 launch vehicle from the Air Force Eastern Test Range (AFETR). Payload-class satellites include a variety of spacecraft equipped with specific instruments for various scientific and technological missions. These include communications satellites like Starlink; space stations such as the ISS; scientific satellites like the Hubble; Earth observation satellites from companies like Planet Labs, Umbra, and HawkEye 360; GPS; miniature CubeSats for education and research; and military/defense satellites.

Loading next visibility...
Identifier
45367, 2020-019H
Orbit
LEO
Country
Flag of USUS
Related business
Manufacturer
SpaceX/Seattle
Mission
Partially operational Commercial Communications
Bus & Motor
STARLINK, Unknown motor
Mass
260 kg wet, ~248 kg dry
Launch date (UTC)
2020-03-18 (6 years ago)
Launch vehicle
FALCON 9
Launch site
Air Force Eastern Test Range (AFETR)
Object type
Payload
Rocket body
Debris
Shape & HBR
Box + 1 Pan, 10.1 m
Radar Cross Section
13.562 m², Large (>1 m²)

Expand to show TLE details & history
Last TLE update: 10 hours ago

TLE from 10 hours ago
0 STARLINK-1273
1 45367U 20019H   26169.98255284  .00075378  00000-0  96833-3 0  9996
2 45367  53.0442  27.5260 0003891 102.6958 257.4489 15.58450823345629
Epoch: 2026-06-18T23:34Z
TLE epoch observation values (Epoch: 2026-06-18T23:34:52.565Z)
Latitude
0.00001°
Longitude
126.58892°
Altitude
393.612 km
Speed
7.675 km/s
True Right ascension
01h 50m 06s
True Declination
0° 00' 00"
Sunlit
Object was in daylight at epoch
Visualization orbit readout
Latitude
Unknown
Longitude
Unknown
Altitude
Unknown
Speed
Unknown
Apparent Right ascension
Unknown
Apparent Declination
Unknown
Sunlit
N/A
Visualization observer readout
Local Sidereal Time
20:18:42
Azimuth
Unknown
Elevation
Unknown
Doppler factor
Unknown
Orbital elements
Apogee altitude
395.053 km
Perigee altitude
389.784 km
Semi-major axis
6,770.555 km
Eccentricity
0.00039
Inclination
53.0442°
RAAN
27.526°
Arg. of periapsis
102.6958°
True anomaly
257.40538°
Mean anomaly
257.4489°
Eccentric anomaly
257.42714°
Mean motion
3.89589 °/min
Orbital period
92.41 mins
BSTAR
0.00096833
Loading maneuver chart data...
Computing Atmospheric mass density...

Documentation

Showing up to 5 results
|